When you browse on this site, cookies collect data to enhance your experience and personalize the content and advertising you see.
Visit our Privacy Policy to learn more. By continuing to use the site, you agree to this use of cookies and data.
  • In Schweiz
  • Länderverzeichnis
  • Für 7 Tage
  • Wassertemperatur
  • Wetterkarte
  • Widgets
  • user-avatar
    Anmelden

    Stündliche Wetter Ruan

    Heute, 5 April, Sonntag

    Zeit Temperatur Niederschläge Wind Luftdruck Luftfeuchtigkeit
    00:00 +6°C° 0 mm 4 m/S 757 mmHg 83%
    01:00 +6°C° 0 mm 4 m/S 756 mmHg 85%
    02:00 +5°C° 0 mm 4 m/S 756 mmHg 87%
    03:00 +5°C° 0 mm 4 m/S 756 mmHg 89%
    04:00 +5°C° 0 mm 4 m/S 756 mmHg 89%
    05:00 +5°C° 0 mm 4 m/S 756 mmHg 90%
    06:00 +4°C° 0 mm 4 m/S 755 mmHg 91%
    07:00 +6°C° 0 mm 4 m/S 756 mmHg 85%
    08:00 +9°C° 0 mm 5 m/S 756 mmHg 78%
    09:00 +12°C° 0 mm 5 m/S 756 mmHg 71%
    10:00 +14°C° 0 mm 6 m/S 755 mmHg 66%
    11:00 +15°C° 0 mm 6 m/S 755 mmHg 61%
    12:00 +17°C° 0 mm 7 m/S 755 mmHg 56%
    13:00 +17°C° 0 mm 7 m/S 754 mmHg 56%
    14:00 +19°C° 0 mm 6 m/S 754 mmHg 56%
    15:00 +19°C° 0 mm 6 m/S 754 mmHg 56%
    16:00 +17°C° 0 mm 6 m/S 754 mmHg 61%
    17:00 +15°C° 0 mm 5 m/S 753 mmHg 67%
    18:00 +14°C° 0 mm 4 m/S 753 mmHg 72%
    19:00 +13°C° 0 mm 4 m/S 753 mmHg 74%
    20:00 +12°C° 0 mm 4 m/S 754 mmHg 77%
    21:00 +11°C° 0 mm 3 m/S 754 mmHg 79%
    22:00 +10°C° 0 mm 4 m/S 754 mmHg 79%
    23:00 +10°C° 0 mm 4 m/S 754 mmHg 79%

    Morgen, 6 April, Montag

    Zeit Temperatur Niederschläge Wind Luftdruck Luftfeuchtigkeit
    00:00 +8°C° 0 mm 4 m/S 754 mmHg 79%
    01:00 +8°C° 0 mm 4 m/S 754 mmHg 79%
    02:00 +8°C° 0 mm 4 m/S 754 mmHg 78%
    03:00 +8°C° 0 mm 4 m/S 754 mmHg 77%
    04:00 +7°C° 0 mm 4 m/S 754 mmHg 76%
    05:00 +7°C° 0 mm 4 m/S 755 mmHg 75%
    06:00 +7°C° 0 mm 4 m/S 755 mmHg 74%
    07:00 +8°C° 0 mm 4 m/S 755 mmHg 73%
    08:00 +8°C° 0 mm 4 m/S 756 mmHg 72%
    09:00 +10°C° 0 mm 3 m/S 757 mmHg 71%
    10:00 +10°C° 0.4 mm 3 m/S 757 mmHg 75%
    11:00 +10°C° 0.4 mm 4 m/S 757 mmHg 78%
    12:00 +10°C° 0.4 mm 4 m/S 758 mmHg 82%
    13:00 +10°C° 1 mm 3 m/S 758 mmHg 86%
    14:00 +10°C° 1 mm 3 m/S 759 mmHg 91%
    15:00 +9°C° 1 mm 2 m/S 759 mmHg 95%
    16:00 +10°C° 0.1 mm 2 m/S 760 mmHg 95%
    17:00 +11°C° 0.1 mm 1 m/S 760 mmHg 94%
    18:00 +11°C° 0.1 mm 1 m/S 761 mmHg 94%
    19:00 +10°C° 0 mm 1 m/S 762 mmHg 95%
    20:00 +10°C° 0 mm 1 m/S 762 mmHg 95%
    21:00 +9°C° 0 mm 1 m/S 763 mmHg 96%
    22:00 +8°C° 0 mm 1 m/S 763 mmHg 95%
    23:00 +8°C° 0 mm 1 m/S 764 mmHg 95%

    übermorgen, 7 April, Dienstag

    Zeit Temperatur Niederschläge Wind Luftdruck Luftfeuchtigkeit
    00:00 +7°C° 0 mm 1 m/S 764 mmHg 94%
    01:00 +7°C° 0 mm 1 m/S 764 mmHg 93%
    02:00 +7°C° 0 mm 1 m/S 764 mmHg 91%
    03:00 +5°C° 0 mm 0 m/S 764 mmHg 90%
    04:00 +6°C° 0 mm 0 m/S 764 mmHg 89%
    05:00 +6°C° 0 mm 0 m/S 765 mmHg 88%
    06:00 +7°C° 0 mm 1 m/S 765 mmHg 87%
    07:00 +9°C° 0 mm 1 m/S 765 mmHg 82%
    08:00 +11°C° 0 mm 1 m/S 765 mmHg 78%
    09:00 +13°C° 0 mm 2 m/S 765 mmHg 73%
    10:00 +14°C° 0 mm 1 m/S 765 mmHg 68%
    11:00 +16°C° 0 mm 1 m/S 765 mmHg 64%
    12:00 +18°C° 0 mm 1 m/S 765 mmHg 59%
    13:00 +18°C° 0 mm 1 m/S 765 mmHg 58%
    14:00 +19°C° 0 mm 1 m/S 765 mmHg 58%
    15:00 +19°C° 0 mm 1 m/S 764 mmHg 57%
    16:00 +17°C° 0 mm 2 m/S 764 mmHg 64%
    17:00 +16°C° 0 mm 2 m/S 764 mmHg 71%
    18:00 +14°C° 0 mm 2 m/S 764 mmHg 78%
    19:00 +13°C° 0 mm 2 m/S 764 mmHg 82%
    20:00 +12°C° 0 mm 2 m/S 765 mmHg 86%
    21:00 +10°C° 0 mm 2 m/S 765 mmHg 90%
    22:00 +10°C° 0 mm 2 m/S 765 mmHg 90%
    23:00 +10°C° 0 mm 1 m/S 765 mmHg 90%

    8 April, Mittwoch

    Zeit Temperatur Niederschläge Wind Luftdruck Luftfeuchtigkeit
    00:00 +10°C° 0 mm 1 m/S 765 mmHg 90%
    01:00 +10°C° 0 mm 1 m/S 765 mmHg 90%
    02:00 +10°C° 0 mm 1 m/S 764 mmHg 89%
    03:00 +10°C° 0 mm 1 m/S 764 mmHg 89%
    04:00 +10°C° 0 mm 1 m/S 764 mmHg 89%
    05:00 +10°C° 0 mm 1 m/S 764 mmHg 89%
    06:00 +10°C° 0 mm 1 m/S 764 mmHg 89%
    07:00 +12°C° 0 mm 1 m/S 764 mmHg 83%
    08:00 +14°C° 0 mm 2 m/S 764 mmHg 78%
    09:00 +16°C° 0 mm 2 m/S 764 mmHg 72%
    10:00 +17°C° 0 mm 2 m/S 764 mmHg 69%
    11:00 +18°C° 0 mm 2 m/S 764 mmHg 65%
    12:00 +19°C° 0 mm 2 m/S 764 mmHg 62%
    13:00 +19°C° 0 mm 3 m/S 764 mmHg 63%
    14:00 +19°C° 0 mm 3 m/S 763 mmHg 64%
    15:00 +19°C° 0 mm 3 m/S 763 mmHg 64%
    16:00 +18°C° 0 mm 3 m/S 763 mmHg 69%
    17:00 +16°C° 0 mm 3 m/S 763 mmHg 74%
    18:00 +13°C° 0 mm 3 m/S 763 mmHg 79%
    19:00 +12°C° 0 mm 3 m/S 763 mmHg 78%
    20:00 +11°C° 0 mm 3 m/S 763 mmHg 76%
    21:00 +10°C° 0 mm 3 m/S 764 mmHg 75%
    22:00 +9°C° 0 mm 3 m/S 764 mmHg 80%
    23:00 +9°C° 0 mm 2 m/S 764 mmHg 84%

    9 April, Donnerstag

    Zeit Temperatur Niederschläge Wind Luftdruck Luftfeuchtigkeit
    00:00 +9°C° 0 mm 2 m/S 764 mmHg 89%
    01:00 +8°C° 0 mm 2 m/S 764 mmHg 90%
    02:00 +8°C° 0 mm 2 m/S 764 mmHg 90%
    03:00 +8°C° 0 mm 2 m/S 764 mmHg 90%
    04:00 +7°C° 0 mm 2 m/S 764 mmHg 91%
    05:00 +7°C° 0 mm 2 m/S 764 mmHg 91%
    06:00 +7°C° 0 mm 2 m/S 764 mmHg 91%
    07:00 +9°C° 0 mm 3 m/S 764 mmHg 86%
    08:00 +11°C° 0 mm 3 m/S 764 mmHg 81%
    09:00 +13°C° 0 mm 3 m/S 764 mmHg 76%
    10:00 +14°C° 0 mm 3 m/S 764 mmHg 72%
    11:00 +17°C° 0 mm 3 m/S 764 mmHg 68%
    12:00 +18°C° 0 mm 3 m/S 764 mmHg 64%
    13:00 +18°C° 0 mm 4 m/S 764 mmHg 64%
    14:00 +18°C° 0 mm 4 m/S 763 mmHg 65%
    15:00 +18°C° 0 mm 4 m/S 763 mmHg 65%
    16:00 +17°C° 0 mm 4 m/S 763 mmHg 69%
    17:00 +15°C° 0 mm 4 m/S 763 mmHg 73%
    18:00 +13°C° 0 mm 3 m/S 763 mmHg 77%
    19:00 +12°C° 0 mm 3 m/S 763 mmHg 79%
    20:00 +11°C° 0 mm 3 m/S 763 mmHg 80%
    21:00 +9°C° 0 mm 3 m/S 763 mmHg 82%
    22:00 +9°C° 0 mm 3 m/S 763 mmHg 86%
    23:00 +8°C° 0 mm 3 m/S 763 mmHg 89%

    10 April, Freitag

    Zeit Temperatur Niederschläge Wind Luftdruck Luftfeuchtigkeit
    00:00 +8°C° 0 mm 3 m/S 763 mmHg 93%
    01:00 +7°C° 0 mm 3 m/S 763 mmHg 93%
    02:00 +7°C° 0 mm 3 m/S 763 mmHg 93%
    03:00 +7°C° 0 mm 2 m/S 762 mmHg 93%
    04:00 +7°C° 0 mm 2 m/S 762 mmHg 92%
    05:00 +7°C° 0 mm 2 m/S 762 mmHg 91%
    06:00 +7°C° 0 mm 2 m/S 762 mmHg 91%
    07:00 +9°C° 0 mm 2 m/S 762 mmHg 84%
    08:00 +13°C° 0 mm 2 m/S 762 mmHg 78%
    09:00 +15°C° 0 mm 2 m/S 762 mmHg 72%
    10:00 +17°C° 0 mm 2 m/S 762 mmHg 69%
    11:00 +18°C° 0 mm 2 m/S 762 mmHg 65%
    12:00 +20°C° 0 mm 2 m/S 762 mmHg 62%
    13:00 +20°C° 0 mm 2 m/S 761 mmHg 60%
    14:00 +20°C° 0 mm 2 m/S 761 mmHg 58%
    15:00 +21°C° 0 mm 2 m/S 760 mmHg 56%
    16:00 +19°C° 0 mm 2 m/S 760 mmHg 62%
    17:00 +18°C° 0 mm 2 m/S 760 mmHg 68%
    18:00 +17°C° 0 mm 2 m/S 760 mmHg 73%
    19:00 +15°C° 0 mm 2 m/S 760 mmHg 76%
    20:00 +14°C° 0 mm 2 m/S 760 mmHg 78%
    21:00 +13°C° 0 mm 2 m/S 760 mmHg 81%
    22:00 +12°C° 0 mm 2 m/S 760 mmHg 80%
    23:00 +12°C° 0 mm 2 m/S 760 mmHg 79%
    Mehr zeigen